{"data":{"norad_id":38011,"intl_designator":"2011-076E","name":"SSOT","alt_names":[],"object_type":"PAYLOAD","status":"ACTIVE","operator":null,"country":"CHLE","launch_date":"2011-12-17","launch_site_code":"FRGUI","launch_vehicle":null,"mission":null,"orbit_class":"UNKNOWN","rcs_meters":0.7299,"size_class":null,"mass_kg":null,"dimensions":null,"purposes":[],"wikipedia_slug":null,"has_3d_model":false,"image_url":null,"decayed_at":null,"tle_current":{"epoch":"2026-05-25T04:55:22.996992Z","epoch_age_seconds":51355,"freshness":"FRESH","line1":"1 38011U 11076E   26145.20512728  .00000896  00000+0  11820-3 0  9990","line2":"2 38011  97.8074 206.1519 0001414  97.0596 348.8204 14.82447351780979","mean_motion":14.82447351,"eccentricity":0.0001414,"inclination_deg":97.8074,"raan_deg":206.1519,"arg_perigee_deg":97.0596,"mean_anomaly_deg":348.8204,"bstar":0.0001182,"rev_number":78097,"period_min":97.136670589255,"perigee_km":620.61990248434,"apogee_km":622.59943084167,"semimajor_km":6999.746666663,"source":"CELESTRAK","updated_at":"2026-05-25T13:37:55.290544Z"}}}